Find Starlink 30311

NORAD ID: 57637 Int'l Des: 2023-122 Owner: SPXS Country: US Constellation: starlink operational
LEOCIRCULAR

Aktuelle Ansicht

3D-Globus wird geladen...

Über Starlink 30311

Beschreibung wird geladen...

Nächste Überflüge

Passes for default location (London). Set your location on the main map for personalized predictions.

Höhenverlauf

Loading altitude history...

Zweizeiliger Elementsatz

1 57637U 23122F 26145.99502916 .00002969 00000-0 11739-3 0 9997
2 57637 43.0029 15.5961 0001368 268.0935 91.9760 15.27576655154030
Epoch: 25. Mai 2026 • Age: 19 hours

Aktueller Status

Höhe 492.9 km
Geschwindigkeit 7.62 km/s
Subsatellitenpunkt -36.70°S, 157.55°E
Startdatum 17. Aug. 2023
Alter 2.7 years
Typ internet

Technische Details

Klassifizierung Payload
Masse 730.00 kg
Trockenmasse 700.00 kg
Gesamtmasse 730.00 kg
Länge 0.30 m
Durchmesser 4.10 m
Spannweite 29.00 m
Form Box + pan
Hersteller SPXS
Bus-Typ Starlink V2M
Phasenstatus In Orbit
Besitzer/Staat SPXS/US

Most Searched